TimeCDT,TemperatureF,Dew PointF,Humidity,Sea Level PressureIn,VisibilityMPH,Wind Direction,Wind SpeedMPH,Gust SpeedMPH,PrecipitationIn,Events,Conditions,WindDirDegrees,DateUTC
12:53 AM,62.1,45.0,53,29.83,10.0,SSE,10.4,-,N/A,,Clear,150,2012-10-04 05:53:00
1:53 AM,62.1,45.0,53,29.80,10.0,SSE,12.7,-,N/A,,Clear,160,2012-10-04 06:53:00
2:53 AM,59.0,44.1,58,29.79,10.0,SSE,8.1,-,N/A,,Clear,160,2012-10-04 07:53:00
3:53 AM,59.0,44.1,58,29.77,10.0,SSE,9.2,-,N/A,,Clear,160,2012-10-04 08:53:00
4:53 AM,55.0,39.9,57,29.81,10.0,WSW,9.2,20.7,N/A,,Partly Cloudy,240,2012-10-04 09:53:00
5:44 AM,50.0,39.2,66,29.86,10.0,WSW,18.4,27.6,N/A,,Mostly Cloudy,250,2012-10-04 10:44:00
5:53 AM,50.0,39.9,68,29.86,10.0,WSW,17.3,33.4,N/A,,Mostly Cloudy,250,2012-10-04 10:53:00
6:53 AM,50.0,39.9,68,29.88,10.0,WSW,16.1,23.0,N/A,,Overcast,240,2012-10-04 11:53:00
7:53 AM,48.0,39.0,71,29.91,10.0,WSW,17.3,26.5,N/A,,Overcast,240,2012-10-04 12:53:00
8:53 AM,46.9,36.0,66,29.94,10.0,WSW,20.7,29.9,N/A,,Mostly Cloudy,250,2012-10-04 13:53:00
9:53 AM,46.9,33.1,59,29.95,10.0,WSW,20.7,33.4,N/A,,Scattered Clouds,250,2012-10-04 14:53:00
10:36 AM,48.2,33.8,58,29.98,10.0,West,23.0,32.2,N/A,,Mostly Cloudy,270,2012-10-04 15:36:00
10:53 AM,46.9,33.1,59,29.98,10.0,West,19.6,32.2,N/A,,Overcast,260,2012-10-04 15:53:00
11:53 AM,48.0,33.1,56,30.00,10.0,WNW,20.7,33.4,N/A,,Overcast,290,2012-10-04 16:53:00
12:10 PM,48.2,33.8,58,30.01,10.0,WSW,18.4,29.9,N/A,,Overcast,250,2012-10-04 17:10:00
12:53 PM,50.0,32.0,50,30.03,10.0,West,19.6,29.9,N/A,,Overcast,280,2012-10-04 17:53:00
1:53 PM,48.9,30.9,50,30.04,10.0,WNW,23.0,32.2,N/A,,Overcast,290,2012-10-04 18:53:00
2:53 PM,50.0,30.9,48,30.07,10.0,West,20.7,32.2,N/A,,Overcast,260,2012-10-04 19:53:00
3:53 PM,50.0,30.0,46,30.08,10.0,WNW,23.0,33.4,N/A,,Overcast,290,2012-10-04 20:53:00
4:53 PM,48.2,30.2,50,30.10,10.0,West,21.9,31.1,N/A,,Overcast,280,2012-10-04 21:53:00
5:53 PM,46.9,28.9,50,30.12,10.0,West,27.6,36.8,N/A,,Overcast,270,2012-10-04 22:53:00
6:53 PM,46.0,28.9,51,30.13,10.0,West,18.4,33.4,N/A,,Overcast,270,2012-10-04 23:53:00
7:53 PM,46.4,28.4,50,30.14,10.0,West,23.0,28.8,N/A,,Overcast,270,2012-10-05 00:53:00
8:53 PM,45.0,28.0,52,30.15,10.0,West,15.0,32.2,N/A,,Overcast,280,2012-10-05 01:53:00
9:53 PM,45.0,28.0,52,30.16,10.0,WNW,23.0,28.8,N/A,,Overcast,290,2012-10-05 02:53:00
10:53 PM,43.0,28.9,58,30.17,10.0,West,17.3,29.9,N/A,,Mostly Cloudy,270,2012-10-05 03:53:00
11:53 PM,44.1,28.0,53,30.16,10.0,West,21.9,29.9,N/A,,Overcast,280,2012-10-05 04:53:00